THOR BURNER 2 R/B

基本信息
目录编号:
2877
目录名称:
THOR BURNER 2 R/B
国际标识:
1967-065C
轨道中心:
EARTH
物体状态:
在轨
发射日期:
1967-06-29 UTC
国别:
美国 (US)
轨道信息
数据来源: 国际轨道数据
星历时间: 2026-07-13T14:34:31+0800
半长轴: 10249.918km
偏心率: 0.0064601
轨道倾角: 89.982°
近地点辐角: 70.992°
升交点赤经: 313.576°
平近点角: 289.790°
近地点: 3805.565km
远地点: 3937.997km
周期: 172.124分钟
每日圈数: 8.366084
详细信息
发射场:
AFWTR
轨道高度:
MEO
数据来源:
AOE Integration Group
参考系:
TEME
时间系统:
UTC
历元类型:
SGP4
2D轨道图
3D轨道图
轨道高度分析图
轨道倾角分析图
轨道综合分析图
查看轨道综合分析图